Tracking 35334 objects as of 13-Sep-2026
HD Live streaming from Space Station
objects crossing your sky now

SL-12 DEB


SL-12 DEB is no longer on orbit


NORAD ID: 28736
Int'l Code: 2002-037AM
Launch date: July 25, 2002
Source: Commonwealth of Independent States (former USSR) (CIS)
Launch site: TYURATAM MISSILE AND SPACE COMPLEX (TTMTR)
Decay date: 2005-09-28

Note: This is SATELLITE DEBRIS
Your satellite tracking list
Your tracking list is empty




NASA's NSSDC Master Catalog

Two Line Element Set (TLE):
1 28736U 02037AM  05270.85329241  .04980088  61611-1  87026-2 0  9994
2 28736 063.5272 092.0697 0037879 101.4825 263.1227 16.06063276 13623
Source of the keplerian elements: AFSPC